Location: Latina
(41.4670°N, 12.8670°E)
Time: 17:08:51
(UTC+02:00)

ISS - Pass Details

Date: 16 May 2021
Orbit: 417 x 422 km, 51.6° (Epoch: 18 June)

Event Time Altitude Azimuth Distance (km) Brightness Sun altitude
Rises 21:12:26 0° 224° (SW) 2,348 0.2 -8.9°
Reaches altitude 10° 21:14:32 10° 220° (SW) 1,489 -0.9 -9.2°
Maximum altitude 21:17:49 58° 141° (SE) 493 -3.7 -9.7°
Drops below altitude 10° 21:21:08 10° 61° (ENE) 1,501 -1.2 -10.2°
Sets 21:23:15 0° 58° (ENE) 2,369 -0.1 -10.5°
